Location: Newark
(47.5000°N, 4.6167°E)
Time: 01:13:22
(UTC+00:00)

X-37B - Pass Details

Date: 16 December 2021
Orbit: 334 x 337 km, 45.0° (Epoch: 11 January)

Event Time Altitude Azimuth Distance (km) Brightness Sun altitude
Rises 17:05:02 0° 271° (W) 2,106 5.7 -11.8°
Reaches altitude 10° 17:07:06 10° 263° (W) 1,268 4.5 -12.1°
Maximum altitude 17:09:47 38° 193° (SSW) 524 1.5 -12.6°
Enters shadow 17:12:04 13° 125° (SE) 1,112 2.6 -12.9°
